Content
SEND FEEDBACK

Daily
Averages
Monthly
Summary
Mexico

PUEBLA - JARDINES DE SAN MANUEL, PUEBLA


Home > North America > Mexico > Puebla
Elevation: 6962 feet     Latitude: 19 00N     Longitude: 098 11W

WEATHER
 
SELECT A DAY
Number of Records: 124,759;   Date Range: 1/1/95 - 11/22/14
 
SHARE

PRINT THIS DATA

[ ← Previous Day ]
WEATHER ALMANAC - JUNE 19, 2013
[ Next Day → ]
[ °C ]   °F
Weather ElementAverageHighLow
Temperature62.6 °F75.2 °F (1:42 pm)50 °F (5:45 am)
Dewpoint51.8 °F60 °F (3:40 pm)44.6 °F (5:45 am)
Humidity68.1 %88 % (3:45 pm)32 % (12:50 pm)
Barometer30.11 in30.31 in (8:42 am)29.67 in (9:58 pm)
Wind Speed5.8 mph17.3 mph (3:45 pm)
Weather ElementAverage
Visibility6.8 mi
Wind DirectionWSW (248.7 °)

Weather ElementTotal
Precipitation---
Heating Degree Days2.4 (Base 65)
Growing Degree Days12.6 (Base 50)
Averaged from 26 records on June 19, 2013
WEATHER CONDITIONS BREAKOUT
WIND DIRECTION BREAKOUT
WEATHER BY HOUR - JUNE 19, 2013
[ °C ]   °F
Local TimeTemperatureDewpointHumidityBarometerVisibilityWind DirectionWind SpeedGust SpeedPrecipitationEventsConditions
3:50 AM61.0 °F51.0 °F61 %29.75 in3.0 miCalmScattered Clouds
3:58 AM62.0 °F53.0 °F64 %29.77 in3.0 miCalmRainLight Drizzle
5:45 AM50.0 °F44.6 °F82 %30.25 in8.0 miNW (310°)5.8 mphScattered Clouds
6:47 AM50.0 °F44.6 °F82 %30.27 in8.0 miNW (320°)4.6 mphScattered Clouds
6:58 AM56.0 °F53.0 °F86 %29.73 in3.0 miCalmPartly Cloudy
7:49 AM53.6 °F48.2 °F82 %30.29 in8.0 miNW (320°)6.9 mphMostly Cloudy
8:42 AM59.0 °F48.2 °F67 %30.31 in8.0 miNNW (330°)9.2 mphOvercast
9:44 AM62.6 °F48.2 °F59 %30.30 in8.0 miNNW (330°)12.7 mphOvercast
9:50 AM62.0 °F53.0 °F64 %29.83 in3.0 miWNW (300°)2.2 mphHaze
10:45 AM64.4 °F48.2 °F56 %30.29 in8.0 miNW (310°)8.1 mphOvercast
11:45 AM68.0 °F48.2 °F49 %30.26 in8.0 miNW (320°)5.8 mphMostly Cloudy
12:43 PM73.4 °F50.0 °F44 %30.25 in8.0 miCalmMostly Cloudy
12:50 PM74.0 °F50.0 °F32 %29.77 in6.0 miWNW (300°)2.2 mphHaze
1:42 PM75.2 °F46.4 °F36 %30.28 in8.0 miEast (80°)4.6 mphMostly Cloudy
2:40 PM75.2 °F48.2 °F38 %30.19 in8.0 miSSE (150°)10.4 mphMostly Cloudy
3:09 PM69.8 °F55.4 °F60 %30.20 in6.0 miNW (320°)5.8 mphRainRain
3:40 PM66.0 °F60.0 °F77 %29.68 in12.0 miNorth6.7 mphRainLight Drizzle
3:45 PM59.0 °F55.4 °F88 %30.21 in6.0 miNorth (10°)17.3 mphRainRain
4:45 PM62.6 °F55.4 °F77 %30.19 in8.0 miWNW (290°)4.6 mphMostly Cloudy
6:14 PM62.6 °F55.4 °F77 %30.19 in6.0 miNE (40°)6.9 mphRainLight Rain
6:44 PM62.6 °F57.2 °F82 %30.21 in8.0 miNorth (350°)5.8 mphRainLight Rain
7:45 PM59.0 °F55.4 °F88 %30.24 in7.0 miNNW (330°)8.1 mphRainLight Rain
8:47 PM60.8 °F55.4 °F82 %30.25 in8.0 miNNW (330°)8.1 mphMostly Cloudy
9:46 PM59.0 °F55.4 °F88 %30.27 in8.0 miNorth (360°)8.1 mphMostly Cloudy
9:58 PM62.0 °F54.0 °F68 %29.67 in3.0 miWest (270°)2.2 mphRainLight Rain
10:45 PM59.0 °F53.6 °F82 %30.30 in8.0 miNorth (350°)5.8 mphMostly Cloudy
Hourly data recorded from MMPB, located miles away from Puebla - Jardines de San Manuel, Puebla







STORIES FROM OUR PARTNERS